カタログに戻る

SL-12 R/B(2)

運用中GEO
NORAD 21792·ROCKET BODY·🇷🇺 Russia

打ち上げ Nov 22, 1991 から Baikonur Cosmodrome

Loading…

TLE

最新Source: Space-Track

元期: Sep 13, 2026, 20:52 UTC

1 21792U 91079D   26256.86962918 -.00000055  00000-0  00000+0 0  9997
2 21792  13.9710 342.2932 0004775 148.3935 212.1359  0.98616901125309

AllMySatでSL-12 R/B(2)をリアルタイム追跡

Download on the App Store